Preview of NWS' New Version of Forecast
This preview is not operational and should not be used for support decisions.

Regional Weather Roundup (RWR)

Issued by Philadelphia/Mt Holly (PHI)

                            
000
ASUS41 KPHI 180012
RWRPHI

REGIONAL WEATHER ROUNDUP
NATIONAL WEATHER SERVICE MOUNT HOLLY NJ
800 PM EDT WED APR 17 2019

NOTE:  "FAIR" INDICATES FEW OR NO CLOUDS BELOW 12,000 FEET WITH NO
SIGNIFICANT WEATHER AND/OR OBSTRUCTIONS TO VISIBILITY.

 * = STATION DOES NOT REPORT PRECIPITATION (E.G. RAIN, SNOW, ETC.) 
        OR FOG.

NJZ015>026-180100-
SOUTHERN NEW JERSEY
  
CITY           SKY/WX    TMP DP  RH WIND       PRES   REMARKS
POMONA         CLOUDY    51  39  63 E9        30.17R                  
6HR MIN TEMP:  51; 6HR MAX TEMP:  57;                                

WILDWOOD*      FAIR      50  42  74 MISG      30.15S                  
MILLVILLE      CLOUDY    52  37  56 E10       30.15R                  
WRIGHTSTOWN    CLOUDY    51  32  48 E8        30.14S                  
MOUNT HOLLY    FAIR      52  31  44 SE5       30.16S                  
TRENTON        CLOUDY    53  26  35 SE12      30.15S                  
6HR MIN TEMP:  53; 6HR MAX TEMP:  61;                                


$$
NJZ001>014-180100-
NORTHERN NEW JERSEY
  
CITY           SKY/WX    TMP DP  RH WIND       PRES   REMARKS
SUSSEX         FAIR      56  34  43 S8G17     30.14R                  
ANDOVER*         N/A     55  30  38 S6        30.14R                  
MORRISTOWN     CLOUDY    55  30  38 S10       30.16R                  
NEWARK         MOCLDY    53  29  39 S13       30.18R                  
TETERBORO      FAIR      54  29  38 S12       30.16R                  
CALDWELL       FAIR      54  27  35 S7        30.17R                  
SOMERVILLE     CLOUDY    54  26  34 S8        30.15R                  
ALLAIRE*       CLOUDY    50  32  50 SE12      30.20R                  
TOMS RIVER*    CLOUDY    50  35  56 SE6       30.19S                  

$$
PAZ043-044-047-054-055-060>062-066>071-180100-
EASTERN PENNSYLVANIA
  
CITY           SKY/WX    TMP DP  RH WIND       PRES   REMARKS
PHILADELPHIA   MOCLDY    55  32  41 E13       30.16R                  
6HR MIN TEMP:  55; 6HR MAX TEMP:  63;                                

NORTH PHILA    FAIR      55  27  34 SE8       30.18R                  
BLUE BELL*     FAIR      52  28  40 SE6       30.17R                  
DOYLESTOWN     CLOUDY    53  24  32 VRB3      30.14S                  
QUAKERTOWN*    MOCLDY    54  30  40 SE5       30.15                   
PERKASIE*      CLOUDY    54  28  37 SE5       30.15R                  
POTTSTOWN      FAIR      54  32  43 E5        30.16R                  
LANCASTER      MOCLDY    58  43  57 SE9       30.10S                  
COATESVILLE    MOCLDY    55  37  50 SE3       30.14R                  
WEST CHESTER   CLOUDY    55  34  44 E7        30.14R                  
READING        FAIR      58  39  49 SE6       30.10S                  
6HR MIN TEMP:  58; 6HR MAX TEMP:  59;                                

ALLENTOWN      CLOUDY    58  33  39 S14G20    30.13R                  
6HR MIN TEMP:  58; 6HR MAX TEMP:  63;                                

QN CITY/ALNTWN FAIR      55  32  41 SE8       30.14S                  
MOUNT POCONO   CLOUDY    51  37  58 S7        30.10R                  
6HR MIN TEMP:  51; 6HR MAX TEMP:  58;                                

HAZLETON       CLOUDY    52  36  54 SE5       30.13S                  
LEHIGHTON      CLOUDY    55  37  50 CALM      30.13R                  
WILKES BARRE   CLOUDY    58  37  45 SE5       30.08R                  

$$
DEZALL-MDZ008-012-015-019-020-180100-
DELAWARE AND EASTERN MARYLAND
  
CITY           SKY/WX    TMP DP  RH WIND       PRES   REMARKS
WILMINGTON     CLOUDY    58  45  62 SE8       30.15R                  
6HR MIN TEMP:  57; 6HR MAX TEMP:  63;                                

DOVER          CLOUDY    53  41  65 E14       30.14R                  
CHESWOLD       CLOUDY    54  43  66 E8        30.14R                  
GEORGETOWN     CLOUDY    55  43  63 E10       30.13S                  
6HR MIN TEMP:  55; 6HR MAX TEMP:  62;                                

EASTON         CLEAR     55  43  62 E8        30.15R                  
STEVENSVILLE   FAIR      57  45  62 SE14      30.11R                  
ABERDEEN       MOCLDY    55  43  62 E10       30.12F                  
PATUXENT       MOCLDY    59  50  72 E13       30.08R                  
OCEAN CITY     FAIR      51  47  86 E9        30.13R                  
WALLOPS ISLAND FAIR      55  50  83 NE14      30.11S                  
CAMBRIDGE      CLEAR     55  43  62 E10       30.11R                  
SALISBURY      MOCLDY    54  47  77 E8        30.12R                  

$$
PAZ001-021-NYZ056-072-MDZ011-DCZ001-180100-
OTHER NEARBY LOCATIONS
  
CITY           SKY/WX    TMP DP  RH WIND       PRES   REMARKS
HARRISBURG     CLOUDY    59  42  53 E12       30.07F                  
STATE COLLEGE  MOCLDY    52  43  71 E5        30.06S                  
WILLIAMSPORT   CLOUDY    56  41  57 E7        30.07S                  
BINGHAMTON     FAIR      54  34  46 S5        30.05S                  
NEW YORK CITY  FAIR      52  28  39 CALM      30.20R                  
BALTIMORE      MOCLDY    58  45  62 E13       30.09R                  
WASHINGTON DC  MOCLDY    62  45  53 E9        30.07R                  

$$